GFSNGP_sfc_30mbdewp_204.txt.gz
Dewpoint
18 16 15 16 16 16 14 15 10 10 10 11 12 11 10 11 11 12 14 15 15 18 24 26 28 30 36 39 39 40 40 39 38 37 37 37 37 37 37 37 37 37 37 37
19 17 16 15 15 16 16 16 15 15 14 14 11 10 10 11 14 18 20 20 25 29 29 32 34 35 37 39 39 39 39 37 37 36 36 35 35 35 35 35 35 35 35 35
18 14 7 8 8 12 14 14 13 10 9 9 7 9 12 20 26 27 29 29 31 34 36 36 39 37 38 39 38 39 38 37 36 36 35 35 35 34 33 33 33 33 33 33
14 7 8 6 8 8 11 11 11 8 6 9 12 18 26 29 29 30 28 31 36 37 38 39 40 39 39 38 39 37 37 36 36 35 34 34 34 33 32 32 32 31 31 31
13 9 7 5 3 4 7 8 10 11 12 17 25 29 27 28 28 29 31 36 37 39 39 41 40 40 40 39 38 37 37 36 36 35 34 33 33 32 32 31 30 30 30 31
9 2 -5 2 16 18 19 12 16 19 21 23 27 23 19 25 29 31 34 37 37 38 39 42 42 41 39 39 37 37 37 36 36 35 34 33 32 32 32 31 29 29 29 29
10 5 8 11 19 23 12 7 21 24 25 25 26 25 24 29 30 33 34 37 37 38 37 39 41 40 39 38 38 38 37 36 35 35 34 33 32 32 31 29 28 28 27 28
11 8 2 23 23 18 18 21 20 21 23 26 27 28 29 29 29 32 33 37 38 37 37 37 38 39 38 37 38 37 36 36 35 34 33 33 32 31 30 28 27 26 25 25
10 10 15 24 19 21 20 19 19 22 23 27 27 28 28 28 29 31 34 37 38 36 36 35 36 37 37 37 37 37 36 35 34 33 33 32 31 30 28 27 26 25 24 23
14 15 16 20 25 25 24 24 23 27 27 27 27 29 29 29 30 30 33 35 37 37 36 33 34 36 36 37 37 36 35 33 33 32 32 31 31 30 28 27 25 24 23 22
16 15 16 16 15 15 17 22 25 25 26 27 30 30 30 29 29 31 32 33 36 36 36 33 32 34 35 36 36 34 33 32 32 32 31 30 30 29 28 27 26 25 24 23
11 13 13 12 13 17 20 22 21 20 20 24 27 27 27 27 27 28 31 34 34 36 35 34 31 32 32 33 34 33 32 31 31 30 30 29 28 28 30 28 29 28 26 24
15 15 16 16 19 22 22 21 22 22 26 29 29 29 28 28 30 31 31 32 33 35 34 32 31 31 32 32 33 32 31 30 30 29 28 27 26 25 25 28 29 28 27 26
20 20 20 22 20 24 30 30 31 31 31 30 29 29 32 32 32 31 31 30 30 31 35 33 32 31 32 32 31 31 30 29 29 28 27 26 25 24 24 24 24 25 27 27
20 22 22 23 28 31 31 31 31 30 30 30 30 31 32 31 30 30 31 31 30 30 31 34 32 31 32 32 31 30 29 28 28 26 25 24 24 24 24 24 24 24 25 26
26 28 28 29 30 29 29 30 30 30 29 28 27 28 29 30 30 31 30 30 29 29 31 33 33 33 32 31 30 29 28 27 26 25 24 24 24 24 24 24 24 24 24 24
25 26 28 28 29 30 30 29 27 27 27 27 29 32 30 29 29 29 29 30 30 30 30 31 34 32 32 31 30 29 28 27 26 25 24 23 23 23 23 23 23 23 23 24
27 26 26 26 26 25 26 27 28 28 29 29 28 28 28 27 27 27 29 29 29 31 31 32 33 32 31 31 30 29 27 26 25 24 24 23 23 23 22 22 22 22 21 22
25 25 25 26 26 27 27 27 28 28 27 27 27 27 27 27 28 28 30 30 29 28 30 33 32 32 31 31 30 29 28 26 25 24 24 23 23 22 22 21 21 21 20 20
25 25 25 26 27 27 27 27 28 28 28 28 27 27 26 27 28 28 30 30 29 29 31 32 31 31 31 31 30 29 28 26 25 24 23 22 22 21 21 21 20 19 18 19
25 24 25 26 26 26 27 27 27 27 26 27 26 26 26 27 29 30 29 29 30 32 32 32 31 31 31 31 31 29 28 27 26 24 23 23 23 21 20 20 18 17 16 16
26 26 27 26 26 26 26 27 28 28 26 25 25 26 27 29 30 31 31 30 30 31 31 31 31 31 31 31 31 29 28 26 25 25 24 23 22 20 19 18 17 16 16 15
27 28 28 27 26 26 26 25 26 26 25 25 25 26 27 29 30 29 29 30 29 30 29 30 31 31 31 30 29 28 27 26 25 25 24 23 22 20 18 18 18 17 17 17
27 27 27 28 27 24 23 24 25 25 25 25 25 26 26 27 28 28 28 28 28 28 29 30 30 30 29 28 28 27 27 26 25 24 24 23 21 20 20 19 19 18 19 19
26 25 26 26 25 23 24 24 24 24 25 25 25 25 26 26 26 27 27 27 28 27 28 29 29 29 28 27 26 26 25 25 25 24 22 21 21 21 20 20 20 20 21 21
26 25 25 26 24 25 23 23 22 23 24 24 24 24 24 25 26 26 26 26 27 27 27 28 29 28 28 27 25 25 24 24 24 23 23 23 23 23 23 22 21 21 19 18
26 24 24 23 23 24 23 22 22 22 23 23 22 23 24 24 24 24 24 25 26 27 27 28 28 27 27 27 26 24 23 23 23 24 24 23 23 22 20 18 17 17 17 16

GFSNGP_sfc_30mbdewp_207.txt.gz
Dewpoint
20 17 16 16 16 16 14 17 18 20 18 19 17 15 13 12 13 15 21 24 25 26 29 32 35 37 37 38 38 40 41 41 40 40 39 39 39 38 39 38 38 38 38 38
19 17 17 15 16 17 15 16 15 16 15 15 16 12 10 13 15 22 25 26 27 28 32 34 37 38 39 41 39 41 41 39 39 39 38 37 36 36 36 36 36 37 36 36
22 22 19 20 19 17 17 17 15 13 14 13 8 10 12 18 25 27 27 29 28 31 34 36 39 40 41 40 40 40 39 38 38 37 36 36 35 35 34 34 34 33 34 35
17 19 15 13 8 15 18 18 17 14 12 10 9 14 23 27 27 28 28 28 30 32 34 37 39 41 41 40 39 39 38 38 37 37 36 35 34 33 33 33 32 32 32 32
15 14 13 6 4 7 8 10 14 12 11 11 16 27 23 25 26 27 29 31 33 34 36 38 39 42 41 39 39 38 37 37 37 36 35 34 33 33 33 32 32 31 32 32
16 13 12 6 12 10 9 -2 15 12 14 17 25 16 15 19 25 28 28 31 32 35 36 37 37 42 40 39 38 38 37 37 37 36 34 34 33 33 32 31 31 31 31 32
14 11 7 11 20 18 -0 1 24 21 22 25 25 25 23 27 27 28 29 31 33 35 36 36 38 40 41 40 39 39 38 37 36 35 35 34 33 33 31 30 30 29 29 31
13 9 7 15 22 10 16 21 21 21 21 23 26 26 27 27 28 28 28 30 32 35 36 37 36 37 39 39 39 39 37 36 35 35 34 33 33 32 31 30 28 28 28 28
12 11 16 23 17 25 22 18 20 22 22 24 26 25 26 28 28 28 29 29 32 35 36 37 36 37 36 37 38 37 36 35 34 34 33 33 32 30 29 29 28 27 27 27
11 15 15 21 25 25 25 24 23 23 22 24 25 23 23 28 29 29 28 29 32 34 36 36 37 36 37 37 37 37 35 34 34 33 32 32 32 30 29 28 28 27 27 27
16 15 17 19 22 20 18 20 22 25 25 24 21 20 22 26 29 28 28 29 31 32 35 36 34 34 36 36 36 35 34 33 33 33 32 31 31 30 29 29 29 28 28 28
9 12 11 12 15 16 17 19 22 22 22 23 22 23 26 28 28 28 28 31 31 32 34 35 34 33 34 34 35 34 33 32 32 32 31 31 30 29 30 30 29 29 29 29
9 17 17 17 18 19 20 22 22 28 29 28 30 30 30 29 29 31 32 31 31 31 32 35 34 33 33 34 34 33 32 32 31 31 30 29 29 28 27 28 30 28 28 27
20 19 17 19 19 22 24 28 31 31 31 31 31 30 30 30 32 32 31 29 30 30 30 31 34 32 34 34 33 32 31 31 31 31 30 29 28 29 28 26 26 26 27 27
19 21 19 22 24 26 30 30 29 29 30 30 30 30 29 27 28 29 31 30 30 30 30 30 32 33 33 33 33 32 31 30 30 30 29 28 28 27 28 27 26 25 26 26
23 23 26 28 29 30 29 28 28 28 30 28 27 26 27 30 30 30 32 32 30 29 30 30 30 33 33 33 32 31 31 30 28 27 26 26 27 27 26 26 25 25 24 25
24 25 28 29 28 28 26 26 25 25 26 26 27 30 28 28 28 28 29 29 30 30 30 31 30 32 33 32 32 31 30 28 27 26 25 26 26 26 26 26 25 25 25 26
27 26 26 26 25 25 24 25 26 26 27 27 28 27 26 26 26 26 27 28 30 31 30 31 32 32 32 32 31 30 29 27 26 26 25 25 25 25 25 25 25 25 25 25
25 25 25 24 25 26 26 26 26 27 28 28 27 26 27 26 26 27 28 28 28 30 30 31 32 32 31 32 31 30 29 27 26 25 25 24 25 25 25 25 25 25 24 24
25 24 24 25 26 26 26 27 27 27 28 28 27 26 25 25 26 28 28 28 29 31 30 31 32 31 31 31 31 30 28 27 26 25 25 24 25 25 25 24 24 25 25 24
25 25 25 26 26 26 26 27 27 27 27 27 25 25 25 26 28 29 28 28 31 33 32 32 32 31 31 31 30 29 28 27 26 25 24 25 25 25 25 24 24 24 23 24
25 26 26 27 27 26 26 27 27 26 26 26 23 24 25 26 28 30 31 30 32 32 32 31 31 31 31 31 31 30 28 27 27 26 25 25 25 24 24 24 23 22 22 22
27 27 27 27 26 26 24 23 24 24 24 23 24 24 25 26 28 27 29 31 30 31 31 31 31 31 31 31 30 30 29 27 27 27 26 26 25 25 24 23 22 21 21 21
26 25 25 27 26 24 23 23 24 24 24 24 25 25 25 25 27 29 29 29 29 29 30 30 31 31 31 31 30 29 28 28 28 27 26 26 26 25 24 22 22 22 22 21
25 24 24 24 24 23 24 24 23 24 24 25 25 25 25 26 25 27 28 28 28 28 29 29 30 29 30 30 29 29 29 28 28 27 26 26 25 24 24 23 23 23 23 23
25 25 25 24 24 24 23 23 22 23 23 23 24 25 25 26 26 26 27 27 27 27 29 29 29 29 29 28 28 27 27 26 26 26 26 25 24 24 24 24 23 23 24 24
25 23 24 24 24 24 24 23 22 22 23 24 23 24 24 25 25 25 26 27 28 28 28 29 29 28 28 27 26 26 26 26 26 25 26 25 26 26 25 24 24 23 22 21

GFSNGP_sfc_30mbdewp_210.txt.gz
Dewpoint
29 23 19 20 21 19 21 26 23 24 22 24 23 22 20 14 12 13 17 19 20 22 25 27 29 31 33 36 40 41 39 40 42 42 41 41 41 40 40 40 40 40 39 39
28 26 19 18 18 19 19 21 21 21 20 22 23 20 13 12 12 17 20 20 24 24 24 26 29 31 35 38 40 41 40 41 41 41 40 40 39 38 38 38 38 38 38 37
26 28 22 22 21 19 20 18 18 17 19 20 17 14 12 13 19 20 20 24 22 22 23 26 29 34 37 40 41 40 40 40 40 40 39 38 37 37 36 36 36 35 36 35
24 22 18 18 14 21 19 19 18 17 17 17 15 12 15 18 20 19 22 23 22 22 24 26 29 31 37 40 40 40 40 39 39 39 38 37 36 35 35 34 34 33 33 33
21 20 19 17 7 18 19 20 19 19 19 18 14 19 18 19 16 19 21 22 22 22 24 26 29 34 37 40 40 40 39 39 38 38 37 37 36 35 35 33 33 32 32 33
24 21 16 14 8 10 14 11 11 20 17 11 11 11 7 17 18 19 20 20 20 22 24 25 30 35 38 40 40 39 38 40 39 38 38 37 36 35 35 34 32 32 32 33
22 20 18 10 6 4 7 12 14 11 8 12 16 14 20 24 23 22 21 21 22 23 24 24 32 36 37 39 40 40 40 40 39 37 37 37 36 36 35 34 33 32 31 32
21 20 17 13 8 5 13 16 16 16 19 21 22 23 22 22 22 22 22 22 21 22 24 27 33 35 36 36 39 41 40 38 37 36 36 35 34 34 34 33 32 32 31 31
20 19 17 16 17 17 15 17 18 17 18 21 20 20 20 20 20 21 23 22 23 23 26 28 35 34 33 36 39 39 37 36 35 35 35 35 34 33 33 32 31 31 30 30
15 13 13 17 20 21 19 19 18 19 16 16 15 17 18 17 15 16 20 22 24 25 25 26 30 36 36 37 38 38 36 35 35 34 33 34 34 34 33 32 31 30 31 29
10 10 13 16 19 20 20 17 16 18 19 19 19 18 17 16 16 18 22 24 24 25 26 28 30 35 36 37 38 37 36 35 34 34 33 33 34 33 32 33 33 32 31 30
11 12 9 13 17 17 17 15 15 16 17 17 18 20 20 20 21 24 25 26 28 29 29 30 31 33 36 36 37 36 36 35 34 34 33 33 31 30 31 32 31 32 32 32
10 12 8 14 13 14 14 16 18 20 22 26 27 27 27 28 28 29 30 30 31 29 29 30 31 33 35 35 36 36 35 35 34 33 32 31 31 30 28 29 30 30 30 30
16 17 16 15 15 18 21 22 29 29 28 28 28 28 27 27 27 29 32 34 34 31 33 32 32 33 38 36 36 35 34 33 34 33 32 31 31 31 30 28 27 27 27 28
16 15 16 20 24 25 26 28 28 27 27 27 29 29 29 27 26 25 26 32 32 31 31 31 31 31 34 36 36 34 35 34 34 33 32 32 31 31 29 28 27 27 27 27
17 19 21 23 24 26 29 28 27 27 26 27 26 26 26 26 26 25 25 26 28 31 33 32 31 33 34 34 34 34 34 34 32 31 30 30 30 29 28 28 26 26 25 25
22 23 25 26 28 28 28 27 26 24 24 24 25 25 27 26 26 25 27 29 31 31 32 32 32 33 33 34 33 34 34 32 30 29 28 28 28 27 27 26 26 26 26 27
25 26 28 29 28 27 26 25 25 25 24 25 27 28 28 27 27 28 29 29 29 30 32 33 34 33 33 34 34 34 33 32 30 29 28 28 27 27 27 26 26 26 27 27
27 27 27 26 25 25 25 25 25 26 27 29 28 27 27 28 28 28 29 28 28 28 30 34 33 32 33 33 33 33 31 31 29 29 28 27 27 26 26 27 26 28 28 26
26 25 25 25 24 25 25 25 27 26 27 27 28 27 27 27 28 28 29 29 30 30 31 32 32 33 33 32 32 31 31 30 29 28 28 27 27 27 27 28 28 28 28 27
26 25 24 24 25 27 28 28 27 27 27 27 27 26 26 27 28 29 29 29 30 33 34 33 33 33 32 32 31 31 31 30 30 28 27 27 27 26 28 27 28 28 28 27
25 27 27 28 28 27 28 27 26 25 26 26 26 26 26 26 27 29 31 31 33 33 33 33 33 33 32 31 31 30 30 30 30 29 28 28 27 27 27 27 27 27 27 27
28 28 28 27 26 26 26 25 25 24 25 25 26 26 26 26 27 27 28 33 31 32 31 32 32 32 31 31 31 31 31 30 30 29 29 28 28 28 27 26 27 27 26 26
28 27 26 26 26 25 24 24 24 25 25 26 27 27 26 26 27 32 31 31 30 29 30 31 31 31 31 31 31 31 31 31 30 30 29 28 29 28 27 27 26 26 26 24
26 26 26 25 24 23 24 24 24 24 25 25 26 26 26 27 27 28 29 30 29 29 30 30 30 31 32 31 31 31 31 31 31 30 29 29 28 28 28 27 27 26 26 25
26 26 26 25 24 24 24 24 23 24 24 24 25 25 26 27 28 28 30 29 30 29 30 29 30 30 31 31 31 31 31 31 30 30 29 29 29 28 28 27 27 27 27 26
26 26 25 24 24 24 24 24 24 24 24 25 24 25 25 26 28 28 28 29 30 30 29 29 29 30 29 30 30 30 30 30 30 30 30 29 29 28 28 28 27 27 27 26

GFSNGP_sfc_30mbdewp_216.txt.gz
Dewpoint
33 37 34 28 30 31 33 34 33 32 30 31 32 31 30 30 24 21 21 21 22 22 25 26 26 26 27 30 33 35 38 39 43 45 44 43 43 42 42 41 40 39 39 37
34 36 38 36 35 28 34 35 34 35 32 32 34 34 31 27 23 22 22 21 20 20 22 23 22 24 27 29 32 37 39 42 43 43 42 42 41 41 40 40 38 38 37 37
33 34 34 33 36 34 27 27 28 30 31 27 32 33 33 30 25 23 21 19 20 22 21 22 24 25 27 30 32 39 40 40 41 41 41 40 40 39 38 37 37 38 36 36
31 33 26 29 28 33 31 27 27 25 25 25 27 33 30 28 27 22 19 20 21 21 21 22 24 24 28 30 34 40 40 40 40 40 40 40 39 38 37 37 37 36 35 34
29 29 27 25 24 22 27 28 29 27 25 25 24 27 29 27 23 22 22 21 23 21 21 21 21 24 26 26 31 37 40 40 40 41 40 39 39 39 37 37 35 35 35 34
30 26 23 25 24 22 24 23 27 26 27 26 22 22 22 19 19 21 21 22 20 19 20 20 21 25 26 25 29 35 40 41 41 40 39 39 39 38 37 36 35 34 34 34
28 27 29 24 20 23 21 21 26 28 28 27 21 23 22 21 20 18 18 18 17 17 18 20 21 26 27 26 27 36 41 41 41 40 39 39 39 38 37 35 34 34 33 33
30 27 24 19 20 21 23 19 23 26 27 27 27 23 21 19 18 18 18 17 16 17 18 18 19 27 28 27 29 34 40 41 41 40 38 38 38 37 36 35 34 33 33 32
28 27 26 18 20 25 23 20 21 22 22 24 24 24 24 23 22 18 16 16 16 17 18 18 19 22 25 28 30 36 39 39 39 38 37 37 36 35 34 34 33 33 32 32
27 26 20 18 21 20 20 19 22 20 20 21 22 22 21 18 18 17 16 16 13 14 16 18 20 20 22 25 33 36 37 37 37 36 35 35 35 35 34 34 34 33 32 32
26 24 19 18 21 21 20 20 21 20 19 18 18 17 16 14 12 11 12 11 11 13 17 19 20 21 22 23 29 34 37 36 36 36 34 34 34 34 34 35 35 34 34 33
26 24 19 20 21 22 20 18 17 14 13 12 12 12 12 12 12 12 14 15 16 18 20 22 22 23 24 27 32 33 36 37 36 35 34 34 34 32 33 34 33 34 35 34
27 24 24 26 25 20 19 18 14 12 14 14 13 12 12 14 19 19 24 24 26 30 32 32 33 32 30 32 34 35 37 36 36 35 35 34 33 32 30 30 31 32 33 34
27 26 24 26 23 22 21 17 15 13 13 13 15 20 23 24 25 28 29 30 32 32 32 32 33 33 34 35 34 31 36 37 36 36 35 34 33 32 31 29 28 28 30 31
22 20 25 25 22 19 17 13 13 15 18 23 25 26 27 27 27 27 34 32 31 31 31 33 32 33 34 33 32 32 33 36 36 36 35 34 34 33 32 31 31 28 28 30
18 17 19 18 16 12 12 15 21 22 23 24 25 26 26 26 26 26 26 29 31 31 32 31 32 33 33 33 32 32 32 34 36 35 34 34 33 32 32 31 31 28 27 27
17 16 15 15 16 18 19 23 24 23 25 25 25 26 26 26 28 28 29 31 31 30 30 30 30 32 32 32 31 31 33 34 35 35 33 33 33 32 31 31 30 29 28 29
16 16 16 21 23 23 24 27 26 26 26 29 29 28 26 26 26 27 28 28 29 29 30 30 30 31 31 32 33 34 34 34 33 33 32 32 32 32 31 30 29 29 30 29
14 20 23 25 26 28 27 27 28 29 28 28 26 27 28 27 26 26 27 27 27 27 28 30 31 31 32 33 35 35 34 34 33 33 33 32 32 31 30 30 29 29 29 28
26 28 29 29 30 29 29 29 27 27 27 28 27 27 26 26 27 27 27 27 27 28 30 31 32 31 33 34 33 34 34 33 33 32 31 31 31 31 31 31 30 30 29 28
28 29 29 28 28 29 29 27 27 26 27 27 27 27 26 27 27 27 27 27 28 32 34 34 34 34 34 34 34 33 33 32 32 31 31 31 31 31 31 31 30 30 30 29
30 29 28 28 28 28 27 27 28 26 26 25 25 25 26 26 27 28 29 28 30 34 34 33 33 33 34 34 33 32 32 31 31 31 31 31 30 30 30 30 30 31 31 30
29 28 27 26 26 27 27 26 26 26 25 25 26 26 27 27 27 26 26 31 32 30 30 30 32 32 32 32 32 32 31 31 31 31 31 31 31 31 30 30 31 31 31 30
28 27 27 27 27 26 24 27 27 26 26 26 27 28 27 26 27 29 32 31 29 30 30 31 31 30 31 32 32 31 30 31 31 31 31 31 31 31 31 30 30 31 31 31
26 26 26 25 25 25 26 26 25 26 27 27 27 28 28 29 27 28 28 29 29 30 31 30 30 29 31 31 31 31 31 31 31 31 31 31 30 30 30 30 30 30 30 30
25 25 26 26 26 26 25 25 25 25 24 26 28 29 28 28 28 29 30 30 30 31 31 30 30 31 31 32 32 31 31 31 31 31 31 31 31 30 30 30 30 30 29 29
28 27 27 25 25 25 24 25 24 26 26 25 25 28 27 28 28 29 30 30 30 30 30 30 30 31 31 31 32 32 32 32 32 31 31 31 31 30 30 30 30 29 29 29

GFSNGP_sfc_30mbdewp_219.txt.gz
Dewpoint
34 34 32 31 31 29 27 29 31 31 31 31 31 32 36 36 30 26 25 24 25 27 27 27 28 28 28 31 33 36 40 44 44 43 43 42 41 41 41 41 40 40 38 37
35 36 33 31 32 35 33 33 34 33 32 35 33 33 32 32 26 24 22 23 24 27 27 27 26 26 29 30 32 40 42 42 42 41 41 41 40 40 41 39 39 38 37 36
32 36 36 32 33 35 36 36 37 33 35 35 36 38 35 25 22 22 22 22 23 25 24 24 25 26 29 34 39 41 40 40 40 40 40 41 40 40 39 37 38 37 36 35
33 35 28 35 35 35 35 34 36 36 37 37 39 39 36 25 23 23 23 23 23 22 24 25 25 27 31 32 33 39 40 40 40 40 39 40 39 38 37 37 36 36 35 34
31 31 32 31 34 36 35 33 32 35 34 34 34 36 35 31 27 25 24 24 23 22 23 23 25 28 27 27 34 38 39 40 40 40 40 40 39 38 37 36 36 35 35 33
30 29 26 29 29 37 36 30 33 32 30 27 31 28 30 29 27 24 24 24 22 22 23 23 23 27 26 27 31 34 38 40 41 40 39 39 39 38 37 36 35 34 34 34
31 29 30 29 24 28 25 23 28 32 32 30 26 29 23 24 23 22 23 22 21 21 21 21 21 28 26 27 29 37 41 41 40 39 39 39 38 38 36 35 34 34 33 33
32 29 26 28 24 23 24 21 29 30 31 28 27 22 22 22 21 21 21 20 19 19 19 20 22 28 27 27 34 39 39 40 40 40 40 39 38 38 36 34 33 33 33 32
31 29 30 23 24 26 22 26 29 31 29 26 24 22 22 20 19 19 18 18 18 18 19 20 24 28 28 28 36 39 38 38 38 38 38 37 37 36 35 34 33 32 32 31
28 25 22 25 24 22 25 25 29 29 25 22 21 22 21 21 21 19 17 17 16 16 18 18 21 25 25 31 37 38 36 36 37 37 37 36 36 35 35 34 33 32 32 31
27 21 22 23 22 23 23 24 25 26 26 25 24 22 20 19 18 17 18 17 15 14 17 19 20 22 23 32 36 37 36 36 35 36 35 34 35 34 34 35 34 33 33 33
26 21 20 22 22 24 23 22 22 21 21 21 21 19 18 17 16 14 14 14 15 18 27 32 32 32 32 35 36 37 36 35 35 35 35 34 33 32 34 35 35 35 35 34
27 22 22 24 23 22 20 18 18 16 16 15 15 15 15 15 15 16 23 30 31 32 33 33 33 33 35 35 33 33 35 35 35 35 35 34 33 32 31 30 33 33 34 35
29 25 24 24 23 21 18 18 17 16 16 16 15 15 18 23 27 28 28 31 31 30 29 30 29 29 32 32 31 30 29 34 35 35 35 34 34 33 32 30 29 28 31 33
27 25 24 25 22 19 16 14 15 15 16 18 22 26 26 27 29 29 31 30 29 28 29 30 29 29 32 32 31 31 31 31 32 35 35 34 34 33 32 31 29 28 28 30
26 27 26 23 20 16 14 15 16 18 23 27 28 28 28 28 27 31 31 31 29 29 31 32 32 32 33 32 32 31 31 31 31 33 34 33 33 32 32 31 30 28 27 28
26 26 24 20 17 15 15 17 18 25 26 28 28 29 28 28 28 29 29 29 29 29 29 29 29 30 30 30 31 30 30 31 32 31 34 33 33 32 32 31 30 28 27 28
22 21 18 16 16 18 23 27 29 29 29 29 27 27 26 26 26 25 26 27 27 27 28 29 29 29 29 30 30 31 31 32 32 32 33 33 32 33 32 31 30 28 28 28
19 19 21 23 26 29 29 29 29 28 27 26 26 25 25 25 26 26 26 26 26 26 27 29 30 30 30 31 31 32 33 33 33 33 32 32 32 32 31 31 30 29 29 28
28 30 31 30 30 28 28 28 28 27 27 26 26 25 25 25 26 25 25 25 25 26 28 29 30 31 31 33 33 34 33 33 32 32 32 32 31 31 31 31 30 30 29 28
29 29 28 28 27 27 27 27 27 27 27 26 26 25 25 25 25 25 25 24 26 28 33 34 34 33 33 34 34 34 33 33 32 32 31 31 31 31 31 31 30 30 29 29
28 27 27 27 26 26 27 27 26 26 25 25 25 25 24 24 25 25 28 27 29 31 33 32 32 33 33 34 34 33 32 32 32 32 31 31 31 31 31 31 30 30 30 29
28 28 27 26 26 26 26 26 25 25 25 24 24 25 24 26 25 25 24 31 31 31 29 28 30 31 31 32 31 32 31 30 30 31 31 31 31 31 31 30 31 31 30 30
26 26 27 28 27 26 25 25 25 25 24 25 25 26 25 24 25 29 30 30 29 29 28 28 31 30 29 30 31 31 31 30 30 30 29 30 30 30 31 31 31 31 31 30
27 26 26 25 25 25 26 24 24 25 25 26 27 28 28 29 26 27 27 27 29 30 30 31 30 29 29 31 31 31 31 30 31 30 29 29 30 30 30 30 30 30 30 30
26 25 25 25 25 25 25 25 26 25 24 26 28 28 27 27 28 28 28 30 30 30 30 30 30 31 30 31 31 31 31 31 31 30 31 30 30 30 29 30 30 29 29 28
26 27 26 26 27 26 25 24 25 25 26 25 26 26 27 27 28 29 30 30 30 30 29 29 30 31 31 32 32 31 31 31 31 30 30 30 30 30 30 29 29 28 28 28